WZZ234 LROP-UKBB

Flight info

Callsign WZZ234
Flight time 1h 7m
Altitude 37000
Route DENAK DCT KODRU T34 ATREK N180 SULUM
Aircraft A320/M-SDE3FGHIRWY/LB1

Departure

Time 2026-05-01 10:19
Airport Bucharest Henri Coandă International Airport (LROP)

Arrival

Time 2026-05-01 11:26
Airport Boryspil International Airport (UKBB)
Time Latitude Longitude Altitude Speed Heading
2026-05-01 10:08 44.56912 26.09256 320 ft 0 kts 175°
2026-05-01 10:14 44.56893 26.09258 320 ft 6 kts 175°
2026-05-01 10:15 44.56857 26.09221 319 ft 8 kts 257°
2026-05-01 10:15 44.56849 26.09135 320 ft 10 kts 263°
2026-05-01 10:15 44.56840 26.09007 320 ft 16 kts 264°
2026-05-01 10:15 44.56827 26.08829 320 ft 20 kts 264°
2026-05-01 10:16 44.56816 26.08657 320 ft 14 kts 269°
2026-05-01 10:16 44.56837 26.08561 320 ft 10 kts 327°
2026-05-01 10:16 44.57002 26.08537 320 ft 15 kts 354°
2026-05-01 10:17 44.57119 26.08521 320 ft 18 kts 354°
2026-05-01 10:17 44.57401 26.08480 319 ft 22 kts 354°
2026-05-01 10:17 44.57550 26.08459 321 ft 19 kts 355°
2026-05-01 10:18 44.57674 26.08569 323 ft 15 kts 84°
2026-05-01 10:18 44.57704 26.08963 320 ft 73 kts 84°
2026-05-01 10:18 44.57779 26.09939 322 ft 125 kts 84°
2026-05-01 10:19 44.57879 26.11321 522 ft 148 kts 83°
2026-05-01 10:19 44.57978 26.12739 1181 ft 146 kts 79°
2026-05-01 10:19 44.58087 26.14181 1676 ft 156 kts 79°
2026-05-01 10:20 44.58379 26.17603 2207 ft 200 kts 73°
2026-05-01 10:20 44.59107 26.19335 2485 ft 220 kts 37°
2026-05-01 10:20 44.60552 26.20266 2988 ft 239 kts 17°
2026-05-01 10:20 44.62141 26.21069 3837 ft 245 kts 21°
2026-05-01 10:21 44.63728 26.22002 4781 ft 249 kts 23°
2026-05-01 10:21 44.66949 26.23971 6635 ft 255 kts 22°
2026-05-01 10:21 44.68565 26.24947 7478 ft 258 kts 22°
2026-05-01 10:22 44.71916 26.26935 9134 ft 265 kts 22°
2026-05-01 10:22 44.75359 26.28964 10711 ft 274 kts 22°
2026-05-01 10:23 44.77189 26.30038 10933 ft 296 kts 22°
2026-05-01 10:23 44.81230 26.32398 11710 ft 324 kts 22°
2026-05-01 10:23 44.83325 26.33622 12390 ft 328 kts 22°
2026-05-01 10:24 44.87542 26.36095 13743 ft 334 kts 22°
2026-05-01 10:24 44.91868 26.38641 14973 ft 340 kts 22°
2026-05-01 10:25 44.96264 26.41233 16144 ft 345 kts 22°
2026-05-01 10:25 45.00583 26.44297 17259 ft 352 kts 35°
2026-05-01 10:26 45.02438 26.46583 17822 ft 356 kts 43°
2026-05-01 10:26 45.04192 26.49014 18376 ft 359 kts 43°
2026-05-01 10:26 45.07800 26.54002 19404 ft 366 kts 42°
2026-05-01 10:27 45.11478 26.59073 20386 ft 372 kts 42°
2026-05-01 10:27 45.15218 26.64239 21373 ft 379 kts 42°
2026-05-01 10:28 45.17104 26.66853 21839 ft 382 kts 42°
2026-05-01 10:28 45.20929 26.72164 22727 ft 388 kts 42°
2026-05-01 10:28 45.22838 26.74815 23170 ft 391 kts 42°
2026-05-01 10:29 45.26746 26.80257 24040 ft 396 kts 41°
2026-05-01 10:29 45.28719 26.83008 24403 ft 399 kts 42°
2026-05-01 10:30 45.32704 26.88573 25118 ft 404 kts 42°
2026-05-01 10:30 45.36741 26.94220 25810 ft 410 kts 42°
2026-05-01 10:31 45.40787 26.99896 26526 ft 414 kts 42°
2026-05-01 10:31 45.44907 27.05695 27194 ft 419 kts 42°
2026-05-01 10:32 45.49064 27.11556 27319 ft 421 kts 42°
2026-05-01 10:32 45.51141 27.14491 27317 ft 420 kts 42°
2026-05-01 10:32 45.55266 27.20325 27318 ft 420 kts 42°
2026-05-01 10:33 45.59417 27.26193 27318 ft 420 kts 42°
2026-05-01 10:33 45.63566 27.32081 27318 ft 420 kts 43°
2026-05-01 10:34 45.65636 27.35034 27318 ft 420 kts 43°
2026-05-01 10:34 45.67707 27.37988 27318 ft 421 kts 43°
2026-05-01 10:34 45.69778 27.40942 27320 ft 420 kts 43°
2026-05-01 10:35 45.73887 27.46804 27314 ft 420 kts 43°
2026-05-01 10:35 45.75955 27.49755 27312 ft 420 kts 43°
2026-05-01 10:35 45.78022 27.52708 27313 ft 420 kts 43°
2026-05-01 10:35 45.80087 27.55665 27311 ft 420 kts 43°
2026-05-01 10:36 45.84207 27.61587 27311 ft 420 kts 43°
2026-05-01 10:36 45.86272 27.64560 27316 ft 420 kts 43°
2026-05-01 10:36 45.88332 27.67526 27311 ft 419 kts 43°
2026-05-01 10:37 45.90358 27.70447 27310 ft 419 kts 43°
2026-05-01 10:37 45.94474 27.76382 27310 ft 419 kts 43°
2026-05-01 10:37 45.96531 27.79353 27310 ft 419 kts 43°
2026-05-01 10:38 45.98586 27.82328 27307 ft 419 kts 43°
2026-05-01 10:38 46.00640 27.85306 27306 ft 419 kts 43°
2026-05-01 10:38 46.02692 27.88285 27312 ft 419 kts 43°
2026-05-01 10:38 46.04739 27.91260 27306 ft 418 kts 43°
2026-05-01 10:39 46.06783 27.94233 27307 ft 418 kts 43°
2026-05-01 10:39 46.08796 27.97159 27307 ft 418 kts 43°
2026-05-01 10:39 46.10842 28.00132 27306 ft 418 kts 43°
2026-05-01 10:39 46.12890 28.03114 27424 ft 420 kts 43°
2026-05-01 10:40 46.14939 28.06103 28085 ft 412 kts 43°
2026-05-01 10:40 46.16902 28.08981 29401 ft 392 kts 43°
2026-05-01 10:40 46.18779 28.11693 30654 ft 371 kts 40°
2026-05-01 10:40 46.20735 28.13976 31540 ft 356 kts 33°
2026-05-01 10:41 46.22741 28.16039 31989 ft 353 kts 33°
2026-05-01 10:41 46.24748 28.18100 32302 ft 355 kts 33°
2026-05-01 10:41 46.28765 28.22232 32820 ft 360 kts 33°
2026-05-01 10:42 46.30807 28.24340 33069 ft 362 kts 33°
2026-05-01 10:42 46.32859 28.26464 33324 ft 364 kts 33°
2026-05-01 10:42 46.34923 28.28607 33533 ft 367 kts 33°
2026-05-01 10:42 46.37003 28.30767 33782 ft 369 kts 33°
2026-05-01 10:43 46.39095 28.32938 34025 ft 371 kts 33°
2026-05-01 10:43 46.41200 28.35120 34254 ft 373 kts 33°
2026-05-01 10:43 46.43287 28.37289 34452 ft 375 kts 33°
2026-05-01 10:43 46.45415 28.39503 34623 ft 378 kts 34°
2026-05-01 10:44 46.47557 28.41732 34802 ft 380 kts 33°
2026-05-01 10:44 46.49705 28.43969 34989 ft 382 kts 33°
2026-05-01 10:44 46.51875 28.46229 35176 ft 384 kts 33°
2026-05-01 10:44 46.54050 28.48494 35377 ft 386 kts 34°
2026-05-01 10:45 46.56229 28.50768 35564 ft 387 kts 34°
2026-05-01 10:45 46.58423 28.53063 35725 ft 390 kts 34°
2026-05-01 10:45 46.60630 28.55373 35898 ft 392 kts 33°
2026-05-01 10:45 46.62927 28.57402 36068 ft 392 kts 25°
2026-05-01 10:46 46.65437 28.58947 36227 ft 392 kts 17°
2026-05-01 10:46 46.68021 28.60250 36422 ft 394 kts 18°
2026-05-01 10:46 46.70618 28.61562 36572 ft 396 kts 18°
2026-05-01 10:46 46.73226 28.62886 36753 ft 398 kts 18°
2026-05-01 10:47 46.75843 28.64223 36925 ft 400 kts 18°
2026-05-01 10:47 46.78473 28.65572 37074 ft 402 kts 18°
2026-05-01 10:47 46.81115 28.66929 37240 ft 403 kts 18°
2026-05-01 10:48 46.86435 28.69666 37306 ft 414 kts 18°
2026-05-01 10:48 46.91952 28.72507 37308 ft 426 kts 18°
2026-05-01 10:49 46.97632 28.75436 37297 ft 438 kts 18°
2026-05-01 10:49 47.03420 28.78423 37298 ft 443 kts 18°
2026-05-01 10:50 47.09190 28.81405 37303 ft 443 kts 19°
2026-05-01 10:50 47.15002 28.84418 37289 ft 443 kts 19°
2026-05-01 10:51 47.20809 28.87451 37282 ft 443 kts 18°
2026-05-01 10:51 47.26620 28.90489 37279 ft 443 kts 18°
2026-05-01 10:52 47.32430 28.93516 37289 ft 443 kts 19°
2026-05-01 10:52 47.38194 28.96531 37303 ft 442 kts 19°
2026-05-01 10:53 47.43992 28.99577 37291 ft 442 kts 19°
2026-05-01 10:53 47.49788 29.02628 37309 ft 442 kts 19°
2026-05-01 10:54 47.55575 29.05683 37293 ft 442 kts 19°
2026-05-01 10:54 47.61326 29.08720 37303 ft 442 kts 19°
2026-05-01 10:55 47.67112 29.11788 37303 ft 441 kts 19°
2026-05-01 10:55 47.72895 29.14869 37305 ft 442 kts 19°
2026-05-01 10:56 47.78679 29.17954 37290 ft 442 kts 19°
2026-05-01 10:56 47.84463 29.21045 37296 ft 442 kts 19°
2026-05-01 10:57 47.90102 29.24479 37290 ft 442 kts 28°
2026-05-01 10:57 47.95465 29.28983 37306 ft 442 kts 28°
2026-05-01 10:58 48.00834 29.33483 37300 ft 443 kts 28°
2026-05-01 10:58 48.06209 29.37977 37290 ft 443 kts 28°
2026-05-01 10:59 48.11548 29.42452 37289 ft 443 kts 28°
2026-05-01 10:59 48.16910 29.46978 37297 ft 443 kts 28°
2026-05-01 11:00 48.22274 29.51532 37296 ft 443 kts 28°
2026-05-01 11:00 48.27644 29.56069 37287 ft 443 kts 28°
2026-05-01 11:01 48.32966 29.60583 37306 ft 442 kts 29°
2026-05-01 11:01 48.38307 29.65130 37297 ft 440 kts 29°
2026-05-01 11:02 48.43630 29.69682 37305 ft 440 kts 29°
2026-05-01 11:02 48.48936 29.74236 37289 ft 439 kts 29°
2026-05-01 11:03 48.54210 29.78755 37298 ft 439 kts 29°
2026-05-01 11:03 48.59515 29.83304 37289 ft 438 kts 29°
2026-05-01 11:04 48.64810 29.87865 37284 ft 438 kts 29°
2026-05-01 11:04 48.70095 29.92425 37280 ft 438 kts 29°
2026-05-01 11:05 48.75378 29.97008 37186 ft 436 kts 29°
2026-05-01 11:05 48.77974 29.99263 36655 ft 435 kts 29°
2026-05-01 11:05 48.80600 30.01547 36103 ft 435 kts 29°
2026-05-01 11:05 48.83223 30.03826 35556 ft 434 kts 29°
2026-05-01 11:06 48.85840 30.06098 35021 ft 433 kts 29°
2026-05-01 11:06 48.88451 30.08366 34487 ft 432 kts 29°
2026-05-01 11:06 48.91056 30.10631 33870 ft 431 kts 29°
2026-05-01 11:07 48.96239 30.15160 32563 ft 429 kts 28°
2026-05-01 11:07 48.98824 30.17425 31896 ft 428 kts 28°
2026-05-01 11:07 49.01404 30.19686 31217 ft 428 kts 28°
2026-05-01 11:07 49.03946 30.21917 30547 ft 427 kts 28°
2026-05-01 11:08 49.06518 30.24179 29739 ft 427 kts 28°
2026-05-01 11:08 49.09081 30.26433 29038 ft 423 kts 28°
2026-05-01 11:08 49.14116 30.30869 27777 ft 413 kts 28°
2026-05-01 11:09 49.16588 30.33054 27187 ft 408 kts 28°
2026-05-01 11:09 49.19032 30.35214 26591 ft 404 kts 28°
2026-05-01 11:09 49.21450 30.37351 25999 ft 399 kts 28°
2026-05-01 11:10 49.26174 30.41538 24852 ft 392 kts 28°
2026-05-01 11:10 49.28515 30.43634 24285 ft 388 kts 28°
2026-05-01 11:10 49.30813 30.45751 23606 ft 381 kts 29°
2026-05-01 11:10 49.33055 30.47857 22478 ft 375 kts 29°
2026-05-01 11:11 49.35276 30.49959 21716 ft 374 kts 29°
2026-05-01 11:11 49.37477 30.52041 21184 ft 369 kts 29°
2026-05-01 11:11 49.39657 30.54093 20642 ft 366 kts 29°
2026-05-01 11:11 49.41819 30.56124 20123 ft 363 kts 29°
2026-05-01 11:12 49.43934 30.58109 19617 ft 359 kts 29°
2026-05-01 11:12 49.46059 30.60103 19108 ft 356 kts 29°
2026-05-01 11:12 49.48157 30.62073 18717 ft 350 kts 29°
2026-05-01 11:12 49.50210 30.64007 18327 ft 343 kts 29°
2026-05-01 11:13 49.52238 30.65920 17767 ft 340 kts 29°
2026-05-01 11:13 49.54242 30.67806 17226 ft 337 kts 30°
2026-05-01 11:13 49.56275 30.69493 16901 ft 327 kts 21°
2026-05-01 11:13 49.58397 30.70677 16448 ft 323 kts 18°
2026-05-01 11:14 49.60505 30.71814 15852 ft 319 kts 19°
2026-05-01 11:14 49.62565 30.72929 15145 ft 316 kts 19°
2026-05-01 11:14 49.64633 30.74051 14290 ft 314 kts 19°
2026-05-01 11:14 49.66689 30.75169 13378 ft 312 kts 19°
2026-05-01 11:15 49.68735 30.76284 12613 ft 312 kts 19°
2026-05-01 11:15 49.70772 30.77393 12021 ft 309 kts 19°
2026-05-01 11:15 49.72791 30.78494 11446 ft 306 kts 19°
2026-05-01 11:15 49.74796 30.79587 10868 ft 305 kts 19°
2026-05-01 11:16 49.76758 30.80660 10612 ft 292 kts 19°
2026-05-01 11:16 49.78629 30.81685 10491 ft 278 kts 19°
2026-05-01 11:16 49.80388 30.82651 10357 ft 266 kts 19°
2026-05-01 11:16 49.82093 30.83585 10241 ft 254 kts 19°
2026-05-01 11:17 49.83723 30.84476 10110 ft 243 kts 19°
2026-05-01 11:17 49.85284 30.85333 9940 ft 234 kts 19°
2026-05-01 11:17 49.86853 30.85910 9632 ft 231 kts
2026-05-01 11:17 49.88459 30.86024 9255 ft 231 kts
2026-05-01 11:18 49.90063 30.86130 8878 ft 231 kts
2026-05-01 11:18 49.91646 30.86238 8531 ft 231 kts
2026-05-01 11:18 49.93269 30.86355 8165 ft 230 kts
2026-05-01 11:18 49.94844 30.86470 7808 ft 230 kts
2026-05-01 11:19 49.96442 30.86584 7451 ft 229 kts
2026-05-01 11:19 49.98036 30.86697 7120 ft 229 kts
2026-05-01 11:19 49.99619 30.86809 6777 ft 227 kts
2026-05-01 11:19 50.01198 30.86921 6378 ft 227 kts
2026-05-01 11:20 50.02772 30.87032 6035 ft 226 kts
2026-05-01 11:20 50.04322 30.87142 5643 ft 225 kts
2026-05-01 11:20 50.05877 30.87253 5311 ft 223 kts
2026-05-01 11:20 50.07412 30.87569 5045 ft 222 kts
2026-05-01 11:21 50.08921 30.87947 4872 ft 216 kts
2026-05-01 11:21 50.10383 30.88304 4687 ft 212 kts
2026-05-01 11:21 50.11833 30.88655 4430 ft 210 kts
2026-05-01 11:21 50.13274 30.88929 4271 ft 210 kts
2026-05-01 11:22 50.14728 30.89081 4021 ft 210 kts
2026-05-01 11:22 50.16185 30.89194 3744 ft 210 kts
2026-05-01 11:22 50.17626 30.89299 3453 ft 210 kts
2026-05-01 11:22 50.19085 30.89405 3163 ft 210 kts
2026-05-01 11:23 50.20545 30.89511 2865 ft 208 kts
2026-05-01 11:23 50.21971 30.89615 2585 ft 202 kts
2026-05-01 11:23 50.23375 30.89718 2303 ft 200 kts
2026-05-01 11:23 50.24726 30.89817 2047 ft 187 kts
2026-05-01 11:24 50.25964 30.89907 1793 ft 171 kts
2026-05-01 11:24 50.27100 30.89991 1576 ft 154 kts
2026-05-01 11:24 50.29050 30.90133 1143 ft 137 kts
2026-05-01 11:25 50.29983 30.90199 963 ft 134 kts
2026-05-01 11:25 50.31848 30.90337 591 ft 133 kts
2026-05-01 11:25 50.32769 30.90400 429 ft 128 kts
2026-05-01 11:26 50.33519 30.90461 424 ft 84 kts
2026-05-01 11:26 50.34237 30.90492 415 ft 33 kts 350°
2026-05-01 11:26 50.34429 30.90379 418 ft 29 kts 333°
2026-05-01 11:27 50.34593 30.90245 411 ft 19 kts 334°
2026-05-01 11:27 50.34720 30.90224 415 ft 20 kts
2026-05-01 11:27 50.34858 30.90220 411 ft 18 kts 335°
2026-05-01 11:27 50.34897 30.90051 413 ft 16 kts 289°
2026-05-01 11:28 50.34990 30.90003 413 ft 15 kts
2026-05-01 11:28 50.35093 30.90009 413 ft 12 kts
2026-05-01 11:28 50.35123 30.90057 415 ft 7 kts 91°
2026-05-01 11:29 50.35119 30.90144 415 ft 0 kts 93°